FW7170 Weather Reports


time (UTC)temp
C
wind
direction
speed
KPH
gust
KPH
rain 1hr
cm
rain 24hr
cm
rain mn
cm
humidity
%
barometer
mb
20260509161717 24 113 0.0 1.6 0.00 0.00 0.00 83 1013.1
20260509161214 24 115 0.0 1.6 0.00 0.00 0.00 84 1013.1
20260509160709 24 121 1.6 1.6 0.00 0.00 0.00 84 1013.1
20260509160206 24 112 0.0 0.0 0.00 0.00 0.00 84 1013.0
20260509155701 25 112 1.6 1.6 0.00 0.00 0.00 85 1012.8
20260509155158 24 119 1.6 1.6 0.00 0.00 0.00 85 1012.9
20260509154654 24 116 1.6 1.6 0.00 0.00 0.00 86 1012.8
20260509154151 24 114 1.6 1.6 0.00 0.00 0.00 86 1012.5
20260509153648 24 118 1.6 1.6 0.00 0.00 0.00 87 1012.8
20260509153144 24 161 3.2 3.2 0.00 0.00 0.00 86 1013.0
20260509152640 24 103 0.0 1.6 0.00 0.00 0.00 87 1013.0
20260509152138 23 116 1.6 1.6 0.00 0.00 0.00 87 1013.3
20260509151634 23 115 1.6 1.6 0.00 0.00 0.00 89 1013.2
20260509151131 23 114 1.6 1.6 0.00 0.00 0.00 89 1013.3
20260509150629 23 113 0.0 0.0 0.00 0.00 0.00 90 1013.2
20260509150127 23 108 1.6 1.6 0.00 0.00 0.00 90 1013.6
20260509145623 23 107 0.0 0.0 0.00 0.00 0.00 91 1013.4
20260509145118 22 107 0.0 0.0 0.00 0.00 0.00 91 1013.9
20260509144615 22 109 0.0 0.0 0.00 0.00 0.00 91 1013.7
20260509144112 22 99 0.0 1.6 0.00 0.00 0.00 91 1013.9
20260509143609 22 96 0.0 1.6 0.00 0.00 0.00 91 1013.8
20260509143107 22 94 1.6 1.6 0.00 0.00 0.00 91 1013.8
20260509142602 22 107 1.6 1.6 0.00 0.00 0.00 91 1013.6
20260509142058 22 105 0.0 0.0 0.00 0.00 0.00 91 1013.5
20260509141555 22 103 0.0 0.0 0.00 0.00 0.00 91 1013.3
20260509141051 22 94 1.6 1.6 0.00 0.00 0.00 90 1013.1
20260509140548 22 92 0.0 0.0 0.00 0.00 0.00 91 1013.3
20260509140046 22 110 0.0 0.0 0.00 0.00 0.00 91 1013.2
20260509135543 22 101 0.0 1.6 0.00 0.00 0.00 90 1013.2
20260509135041 22 107 0.0 0.0 0.00 0.00 0.00 91 1013.2
20260509134537 22 104 0.0 0.0 0.00 0.00 0.00 90 1013.3
20260509134035 22 106 0.0 0.0 0.00 0.00 0.00 89 1013.3
20260509133532 22 96 1.6 1.6 0.00 0.00 0.00 89 1013.3
20260509133030 22 95 0.0 0.0 0.00 0.00 0.00 90 1013.2
20260509132528 22 90 0.0 0.0 0.00 0.00 0.00 91 1013.0
20260509132026 22 106 0.0 0.0 0.00 0.00 0.00 91 1013.3
20260509131522 22 98 0.0 0.0 0.00 0.00 0.00 91 1013.3
20260509131019 21 110 0.0 0.0 0.00 0.00 0.00 92 1013.7
20260509130514 21 110 0.0 0.0 0.00 0.00 0.00 92 1013.6
20260509130011 21 111 0.0 0.0 0.00 0.00 0.00 93 1013.7
20260509125508 21 109 0.0 0.0 0.00 0.00 0.00 94 1013.5
20260509125004 20 110 1.6 3.2 0.00 0.00 0.00 94 1013.5
20260509124501 20 100 0.0 1.6 0.00 0.00 0.00 94 1013.5
20260509123958 20 101 0.0 1.6 0.00 0.00 0.00 94 1013.6
20260509123456 20 104 0.0 0.0 0.00 0.00 0.00 95 1013.9
20260509122951 20 108 0.0 0.0 0.00 0.00 0.00 96 1013.7
20260509122448 19 114 0.0 0.0 0.00 0.00 0.00 96 1013.8
20260509121945 19 82 1.6 1.6 0.00 0.00 0.00 96 1013.4
20260509121442 19 110 0.0 1.6 0.00 0.00 0.00 96 1013.6
20260509120939 19 95 1.6 1.6 0.00 0.00 0.00 97 1013.7
20260509120438 19 97 0.0 0.0 0.00 0.00 0.00 98 1013.6
20260509115935 18 97 0.0 0.0 0.00 0.00 0.00 98 1013.7
20260509115432 18 95 1.6 1.6 0.00 0.00 0.00 98 1013.4
20260509114924 18 99 0.0 0.0 0.00 0.00 0.00 99 1013.5
20260509114422 18 99 0.0 0.0 0.00 0.00 0.00 99 1013.6
20260509113922 17 101 0.0 0.0 0.00 0.00 0.00 99 1013.5
20260509113419 17 101 0.0 0.0 0.00 0.00 0.00 99 1013.3
20260509112916 17 101 0.0 0.0 0.00 0.00 0.00 99 1013.4
20260509112413 17 101 0.0 0.0 0.00 0.00 0.00 99 1013.6
20260509111910 17 101 0.0 0.0 0.00 0.00 0.00 99 1013.3
20260509111406 17 101 0.0 0.0 0.00 0.00 0.00 99 1013.2
20260509110904 17 101 0.0 0.0 0.00 0.00 0.00 99 1013.1
20260509110359 16 101 0.0 0.0 0.00 0.00 0.00 99 1013.0
20260509105858 16 101 0.0 0.0 0.00 0.00 0.00 99 1013.2
20260509105356 16 101 0.0 0.0 0.00 0.00 0.00 99 1012.9
20260509104853 16 101 0.0 0.0 0.00 0.00 0.00 99 1012.8
20260509104349 16 101 0.0 0.0 0.00 0.00 0.00 99 1012.8
20260509103847 16 101 0.0 0.0 0.00 0.00 0.00 99 1012.7
20260509103344 16 101 0.0 0.0 0.00 0.00 0.00 99 1012.8
20260509102843 16 101 0.0 0.0 0.00 0.00 0.00 99 1012.6
20260509102340 16 101 0.0 0.0 0.00 0.00 0.00 99 1012.5
20260509101835 16 101 0.0 0.0 0.00 0.00 0.00 99 1012.6
20260509101332 16 101 0.0 0.0 0.00 0.00 0.00 99 1012.7
20260509100830 16 102 0.0 0.0 0.00 0.00 0.00 99 1012.6
20260509100327 16 102 0.0 0.0 0.00 0.00 0.00 99 1012.7
20260509095823 17 102 0.0 0.0 0.00 0.00 0.00 99 1012.4
20260509095320 17 102 0.0 0.0 0.00 0.00 0.00 99 1012.5
20260509094818 17 102 0.0 0.0 0.00 0.00 0.00 99 1012.7
20260509094314 17 102 0.0 0.0 0.00 0.00 0.00 99 1012.7
20260509093812 17 102 0.0 0.0 0.00 0.00 0.00 99 1012.7
20260509093309 17 102 0.0 0.0 0.00 0.00 0.00 99 1012.8
20260509092808 17 102 0.0 0.0 0.00 0.00 0.00 99 1012.7
20260509092306 17 102 0.0 0.0 0.00 0.00 0.00 99 1012.8
20260509091803 17 102 0.0 0.0 0.00 0.00 0.00 99 1012.8
20260509091259 17 102 0.0 0.0 0.00 0.00 0.00 99 1013.0
20260509090757 17 102 0.0 0.0 0.00 0.00 0.00 99 1013.0
20260509090254 17 102 0.0 0.0 0.00 0.00 0.00 99 1012.8
20260509085751 17 102 0.0 0.0 0.00 0.00 0.00 99 1012.7
20260509085248 17 97 0.0 0.0 0.00 0.00 0.00 99 1013.0
20260509084745 17 97 0.0 0.0 0.00 0.00 0.00 99 1013.1
20260509084241 17 93 0.0 1.6 0.00 0.00 0.00 99 1013.0
20260509083740 17 108 0.0 0.0 0.00 0.00 0.00 99 1012.7
20260509083236 17 111 1.6 1.6 0.00 0.00 0.00 99 1012.4
20260509082732 17 103 0.0 0.0 0.00 0.00 0.00 98 1012.7
20260509082229 17 106 1.6 1.6 0.00 0.00 0.00 98 1012.8
20260509081726 17 99 0.0 0.0 0.00 0.00 0.00 98 1013.3
20260509081224 17 97 0.0 0.0 0.00 0.00 0.00 98 1013.3
20260509080722 17 91 1.6 1.6 0.00 0.00 0.00 98 1013.6
20260509080219 17 104 0.0 0.0 0.00 0.00 0.00 98 1013.4
20260509075717 17 105 0.0 0.0 0.00 0.00 0.00 98 1013.2
20260509075214 17 107 0.0 0.0 0.00 0.00 0.00 98 1013.2
20260509074711 17 107 0.0 0.0 0.00 0.00 0.00 97 1013.2
20260509074209 17 108 0.0 0.0 0.00 0.00 0.00 97 1012.9
20260509073705 17 107 0.0 0.0 0.00 0.00 0.00 97 1013.2
20260509073201 17 109 0.0 1.6 0.00 0.00 0.00 97 1013.1
20260509072658 17 98 0.0 0.0 0.00 0.00 0.00 97 1013.2
20260509072155 17 97 0.0 0.0 0.00 0.00 0.00 97 1013.0
20260509071651 17 97 0.0 0.0 0.00 0.00 0.00 97 1013.0
20260509071149 17 97 0.0 0.0 0.00 0.00 0.00 97 1012.8
20260509070646 17 97 0.0 0.0 0.00 0.00 0.00 96 1013.3
20260509070142 17 97 0.0 0.0 0.00 0.00 0.00 96 1013.0
20260509065638 17 97 0.0 0.0 0.00 0.00 0.00 96 1013.3
20260509065134 17 97 0.0 0.0 0.00 0.00 0.00 96 1013.4
20260509064631 17 97 0.0 0.0 0.00 0.00 0.00 96 1013.6
20260509064129 17 98 0.0 0.0 0.00 0.00 0.00 96 1013.3
20260509063626 17 98 0.0 0.0 0.00 0.00 0.00 96 1013.2
20260509063122 17 97 1.6 1.6 0.00 0.00 0.00 96 1013.4
20260509062620 17 96 1.6 1.6 0.00 0.00 0.00 95 1013.7
20260509062116 17 97 0.0 0.0 0.00 0.00 0.00 95 1014.4
20260509061613 17 97 0.0 0.0 0.00 0.00 0.00 95 1014.3
20260509061111 17 93 0.0 0.0 0.00 0.00 0.00 95 1014.3
20260509060609 17 90 1.6 1.6 0.00 0.00 0.00 95 1014.3
20260509060104 17 104 1.6 1.6 0.00 0.00 0.00 95 1014.0
20260509055600 17 91 0.0 1.6 0.00 0.00 0.00 95 1013.6
20260509055056 17 109 0.0 1.6 0.00 0.00 0.00 95 1014.1
20260509054553 17 109 1.6 3.2 0.00 0.00 0.00 95 1014.0
20260509054051 17 96 0.0 0.0 0.00 0.00 0.00 94 1014.5
20260509053549 17 97 0.0 0.0 0.00 0.00 0.00 94 1014.4
20260509053045 17 97 0.0 0.0 0.00 0.00 0.00 94 1014.1
20260509052543 17 86 1.6 1.6 0.00 0.00 0.00 94 1013.9
20260509052041 17 94 1.6 1.6 0.00 0.00 0.00 94 1014.1
20260509051539 17 98 1.6 1.6 0.00 0.00 0.00 94 1014.8
20260509051035 17 98 0.0 0.0 0.00 0.00 0.00 94 1014.7
20260509050533 17 102 1.6 1.6 0.00 0.00 0.00 93 1014.7
20260509050029 17 97 1.6 1.6 0.00 0.00 0.00 93 1014.9
20260509045526 17 108 0.0 0.0 0.00 0.00 0.00 93 1014.8
20260509045023 17 108 0.0 0.0 0.00 0.00 0.00 93 1015.2
20260509044521 17 97 0.0 0.0 0.00 0.00 0.00 92 1015.3
20260509044018 17 96 0.0 0.0 0.00 0.00 0.00 92 1015.6
20260509043514 17 93 0.0 0.0 0.00 0.00 0.00 92 1015.6
20260509043010 17 92 0.0 0.0 0.00 0.00 0.00 92 1015.7
20260509042506 17 94 0.0 0.0 0.00 0.00 0.00 92 1015.4
20260509042003 17 95 1.6 1.6 0.00 0.00 0.00 92 1015.0
20260509041459 17 99 0.0 0.0 0.00 0.00 0.00 92 1015.2
20260509040957 17 100 0.0 0.0 0.00 0.00 0.00 91 1015.6
20260509040455 17 105 0.0 0.0 0.00 0.00 0.00 91 1015.6
20260509035951 17 109 0.0 0.0 0.00 0.00 0.00 91 1015.7
20260509035448 17 100 0.0 0.0 0.00 0.00 0.00 91 1015.5
20260509034945 17 100 0.0 0.0 0.00 0.00 0.00 90 1016.0
20260509034443 17 100 0.0 0.0 0.00 0.00 0.00 90 1015.9
20260509033940 17 100 0.0 0.0 0.00 0.00 0.00 90 1015.8
20260509033437 17 100 0.0 0.0 0.00 0.00 0.00 90 1015.7
20260509032933 17 100 0.0 0.0 0.00 0.00 0.00 90 1016.1
20260509032431 17 101 0.0 0.0 0.00 0.00 0.00 90 1015.9
20260509031929 17 101 0.0 0.0 0.00 0.00 0.00 90 1016.1
20260509031426 17 101 0.0 0.0 0.00 0.00 0.00 90 1015.8
20260509030923 17 101 0.0 0.0 0.00 0.00 0.00 90 1016.2
20260509030421 17 101 0.0 0.0 0.00 0.00 0.00 89 1016.1
20260509025918 17 101 0.0 0.0 0.00 0.00 0.00 89 1016.1
20260509025414 17 101 0.0 0.0 0.00 0.00 0.00 89 1016.1
20260509024909 18 96 0.0 0.0 0.00 0.00 0.00 88 1015.9
20260509024405 18 92 0.0 0.0 0.00 0.00 0.00 88 1015.9
20260509023902 17 97 0.0 0.0 0.00 0.00 0.00 88 1015.6
20260509023400 17 95 0.0 0.0 0.00 0.00 0.00 88 1015.6
20260509022856 17 96 0.0 0.0 0.00 0.00 0.00 88 1015.8
20260509022353 18 96 0.0 0.0 0.00 0.00 0.00 88 1015.8
20260509021850 18 96 0.0 0.0 0.00 0.00 0.00 88 1015.8
20260509021347 17 96 0.0 0.0 0.00 0.00 0.00 88 1015.7
20260509020845 17 98 0.0 0.0 0.00 0.00 0.00 89 1015.6
20260509020343 17 99 0.0 0.0 0.00 0.00 0.00 88 1015.5
20260509015840 17 98 0.0 0.0 0.00 0.00 0.00 88 1015.8
20260509015338 18 99 0.0 0.0 0.00 0.00 0.00 88 1015.8
20260509014834 18 99 0.0 0.0 0.00 0.00 0.00 88 1015.7
20260509014326 18 98 0.0 0.0 0.00 0.00 0.00 87 1015.7
20260509013822 18 98 0.0 0.0 0.00 0.00 0.00 87 1015.6
20260509013319 17 98 0.0 0.0 0.00 0.00 0.00 88 1015.5
20260509012815 17 103 0.0 0.0 0.00 0.00 0.00 88 1015.7
20260509012312 17 103 0.0 0.0 0.00 0.00 0.00 88 1015.8
20260509011809 18 104 0.0 0.0 0.00 0.00 0.00 88 1015.7
20260509011306 18 107 0.0 0.0 0.00 0.00 0.00 88 1015.5
20260509010804 17 102 0.0 0.0 0.00 0.00 0.00 88 1015.6
20260509010300 18 103 0.0 0.0 0.00 0.00 0.00 87 1015.6
20260509005752 18 102 0.0 0.0 0.00 0.00 0.00 87 1015.4
20260509005250 18 110 0.0 0.0 0.00 0.00 0.00 87 1015.5
20260509004749 18 108 0.0 0.0 0.00 0.00 0.00 86 1015.3
20260509004246 18 95 0.0 0.0 0.00 0.00 0.00 86 1015.4
20260509003745 18 94 0.0 0.0 0.00 0.00 0.00 85 1015.4
20260509003242 18 97 0.0 0.0 0.00 0.00 0.00 85 1015.2
20260509002739 18 97 0.0 0.0 0.00 0.00 0.00 84 1015.1
20260509002237 18 100 3.2 3.2 0.00 0.00 0.00 84 1015.1
20260509001734 18 99 0.0 0.0 0.00 0.00 0.00 85 1014.9
20260509001230 18 106 1.6 1.6 0.00 0.00 0.00 84 1015.0
20260509000728 18 101 0.0 0.0 0.00 0.00 0.00 84 1015.3
20260509000226 18 100 0.0 1.6 0.00 0.00 0.00 83 1015.0
20260508235722 18 102 1.6 1.6 0.00 0.00 0.00 83 1014.9
20260508235218 18 108 1.6 1.6 0.00 0.00 0.00 82 1014.8
20260508234715 18 113 3.2 3.2 0.00 0.00 0.00 82 1014.8
20260508234211 18 89 3.2 4.8 0.00 0.00 0.00 81 1014.9
20260508233706 18 90 1.6 1.6 0.00 0.00 0.00 81 1015.2
20260508233203 18 94 1.6 3.2 0.00 0.00 0.00 81 1014.9
20260508232700 18 90 4.8 4.8 0.00 0.00 0.00 80 1014.5
20260508232156 18 103 1.6 3.2 0.00 0.00 0.00 80 1015.0
20260508231655 19 104 1.6 1.6 0.00 0.00 0.00 79 1014.9
20260508231151 19 106 0.0 0.0 0.00 0.00 0.00 79 1015.0
20260508230648 19 123 3.2 3.2 0.00 0.00 0.00 79 1015.1
20260508230144 19 96 1.6 1.6 0.00 0.00 0.00 78 1015.0
20260508225643 19 94 0.0 0.0 0.00 0.00 0.00 78 1015.2
20260508225138 19 103 1.6 1.6 0.00 0.00 0.00 77 1014.9
20260508224636 19 86 4.8 4.8 0.00 0.00 0.00 76 1014.8
20260508224134 19 66 4.8 4.8 0.00 0.00 0.00 76 1014.5
20260508223631 19 99 3.2 3.2 0.00 0.00 0.00 75 1014.9
20260508223128 19 123 3.2 4.8 0.00 0.00 0.00 75 1014.9
20260508222625 19 112 4.8 8.0 0.00 0.00 0.00 74 1014.7
20260508222122 19 60 3.2 4.8 0.00 0.00 0.00 75 1014.7
20260508221618 20 114 1.6 1.6 0.00 0.00 0.00 76 1014.8
20260508221114 20 106 1.6 1.6 0.00 0.00 0.00 76 1014.9
20260508220611 20 105 1.6 3.2 0.00 0.00 0.00 75 1014.9
20260508220108 20 102 3.2 3.2 0.00 0.00 0.00 75 1014.9
20260508215605 20 108 1.6 1.6 0.00 0.00 0.00 75 1015.1
20260508215101 20 56 3.2 4.8 0.00 0.00 0.00 74 1014.9
20260508214559 20 97 1.6 1.6 0.00 0.00 0.00 73 1014.8
20260508214055 20 100 4.8 4.8 0.00 0.00 0.00 72 1014.6
20260508213552 20 115 6.4 9.7 0.00 0.00 0.00 72 1014.8
20260508213048 20 91 3.2 3.2 0.00 0.00 0.00 71 1014.8
20260508212545 20 106 1.6 3.2 0.00 0.00 0.00 71 1015.0
20260508212041 21 86 4.8 8.0 0.00 0.00 0.00 70 1014.9
20260508211537 20 128 3.2 3.2 0.00 0.00 0.00 74 1015.0
20260508211033 20 47 1.6 3.2 0.00 0.00 0.00 73 1015.1
20260508210530 20 107 0.0 1.6 0.00 0.00 0.00 70 1015.0
20260508210028 21 77 4.8 4.8 0.00 0.00 0.00 74 1014.9
20260508205524 20 134 8.0 9.7 0.00 0.00 0.00 71 1014.6
20260508205020 20 108 4.8 8.0 0.00 0.00 0.00 72 1014.5
20260508204518 20 69 6.4 8.0 0.00 0.00 0.00 71 1014.6
20260508204014 20 126 4.8 8.0 0.00 0.00 0.00 72 1015.0
20260508203510 20 121 3.2 4.8 0.00 0.00 0.00 72 1014.8
20260508203006 20 94 8.0 11.3 0.00 0.00 0.00 71 1015.0
20260508202503 20 114 8.0 12.9 0.00 0.00 0.00 70 1014.7
20260508202000 21 101 3.2 3.2 0.00 0.00 0.00 71 1014.6
20260508201456 21 82 4.8 9.7 0.00 0.00 0.00 68 1014.8
20260508200953 21 89 4.8 4.8 0.00 0.00 0.00 69 1015.1
20260508200450 21 126 12.9 17.7 0.00 0.00 0.00 71 1014.9
20260508195944 21 108 11.3 16.1 0.00 0.00 0.00 69 1015.1
20260508195443 22 115 1.6 1.6 0.00 0.00 0.00 71 1015.3
20260508194938 23 109 6.4 11.3 0.00 0.00 0.00 66 1015.2
20260508194436 22 115 9.7 11.3 0.00 0.00 0.00 67 1015.5
20260508193933 22 157 3.2 3.2 0.00 0.00 0.00 68 1015.2
20260508193430 22 20 4.8 8.0 0.00 0.00 0.00 67 1015.3
20260508192926 22 98 6.4 9.7 0.00 0.00 0.00 66 1015.0
20260508192423 22 107 3.2 3.2 0.00 0.00 0.00 67 1015.1
20260508191920 23 119 3.2 3.2 0.00 0.00 0.00 65 1015.1
20260508191417 24 136 9.7 12.9 0.00 0.00 0.00 63 1014.9
20260508190914 24 115 4.8 8.0 0.00 0.00 0.00 63 1015.1
20260508190411 24 105 3.2 3.2 0.00 0.00 0.00 63 1014.9
20260508185907 24 97 6.4 8.0 0.00 0.00 0.00 59 1015.2
20260508185405 24 93 6.4 9.7 0.00 0.00 0.00 59 1015.2
20260508184902 25 95 3.2 3.2 0.00 0.00 0.00 63 1015.1
20260508184359 25 63 4.8 4.8 0.00 0.00 0.00 53 1015.1
20260508183855 25 77 1.6 3.2 0.00 0.00 0.00 54 1015.5
20260508183352 25 49 3.2 3.2 0.00 0.00 0.00 54 1015.3
20260508182848 24 59 1.6 3.2 0.00 0.00 0.00 59 1015.6
20260508182345 25 104 3.2 4.8 0.00 0.00 0.00 55 1015.5
20260508181840 23 103 1.6 1.6 0.00 0.00 0.00 62 1015.7
20260508181337 23 327 4.8 4.8 0.00 0.00 0.00 56 1015.6
20260508180834 25 82 1.6 3.2 0.00 0.00 0.00 55 1015.6
20260508180331 24 61 0.0 0.0 0.00 0.00 0.00 58 1015.8
20260508175827 24 109 4.8 4.8 0.00 0.00 0.00 54 1015.9
20260508175324 23 71 1.6 1.6 0.00 0.00 0.00 61 1016.1
20260508174823 23 103 0.0 0.0 0.00 0.00 0.00 57 1015.9
20260508174320 23 93 1.6 1.6 0.00 0.00 0.00 58 1016.0
20260508173816 22 126 3.2 3.2 0.00 0.00 0.00 59 1015.9
20260508173313 23 287 6.4 8.0 0.00 0.00 0.00 57 1016.1
20260508172808 23 93 0.0 0.0 0.00 0.00 0.00 58 1016.2
20260508172307 24 171 4.8 4.8 0.00 0.00 0.00 53 1016.3
20260508171802 23 89 1.6 1.6 0.00 0.00 0.00 57 1016.3
20260508171258 23 84 3.2 4.8 0.00 0.00 0.00 57 1016.5
20260508170755 23 44 3.2 4.8 0.00 0.00 0.00 54 1016.4
20260508170254 22 286 6.4 8.0 0.00 0.00 0.00 61 1016.6
20260508165750 23 65 1.6 1.6 0.00 0.00 0.00 58 1016.4
20260508165247 23 108 3.2 3.2 0.00 0.00 0.00 56 1016.5
20260508164737 23 102 0.0 1.6 0.00 0.00 0.00 58 1016.4
20260508164234 22 132 1.6 1.6 0.00 0.00 0.00 57 1016.7
20260508163732 22 105 1.6 3.2 0.00 0.00 0.00 59 1016.7
20260508163230 22 164 8.0 9.7 0.00 0.00 0.00 55 1016.9
20260508162725 23 90 0.0 1.6 0.00 0.00 0.00 55 1017.1
20260508162222 23 89 3.2 4.8 0.00 0.00 0.00 55 1017.1